sat.trackr.live / text

‹ back to catalog

YAOGAN-31 03B

NORAD 47693 · 2021-014C

PAYLOAD ACTIVE UNKNOWN

§ Identity

Operator
Country
PRC
Launch date
2021-02-24
Launch site
JSC
Launch vehicle
Mass (kg)
RCS (m²)

External: N2YO · Heavens-Above · Gunter

§ Orbital elements

Epoch: 2026-05-25T04:47:29.448096Z

Period
107.03 min
Inclination
63.4020°
Eccentricity
0.0175245
Mean motion
13.45447636 rev/d
Perigee alt
958.2 km
Apogee alt
1,219.9 km
Semi-major
7,467.2 km
B*
7.9790e-5
RAAN
257.7285°
Arg perigee
0.9059°
Mean anomaly
359.2251°
Rev number
25,758

§ Raw data

YAOGAN-31 03B1 47693U 21014C   26145.19964639 -.00000038  00000+0  79790-4 0  99992 47693  63.4020 257.7285 0175245   0.9059 359.2251 13.45447636257586

JSON: /api/v1/satellites/47693 · /tle

For live sub-satellite position, see the globe view (requires WebGL).

§ Visibility from observer

Set your observer location to see the next 7 days of passes ≥ 10°. The values pass through the URL so the page stays shareable.

No JS? Fill the form by hand. The geolocation button needs JavaScript.